STARLINK-32848, 62808

Orbit data source: Space-Track

STARLINK-32848, 62808 is a payload satellite owned by SpaceX/Seattle (US) in LEO that was launched on Fri, 24 Jan 2025 UTC via an FALCON 9 launch vehicle from the Air Force Western Test Range (AFWTR). Payload-class satellites include a variety of spacecraft equipped with specific instruments for various scientific and technological missions. These include communications satellites like Starlink; space stations such as the ISS; scientific satellites like the Hubble; Earth observation satellites from companies like Planet Labs, Umbra, and HawkEye 360; GPS; miniature CubeSats for education and research; and military/defense satellites.

Loading next visibility...
Identifier
62808, 2025-018C
Orbit
LEO
Country
Flag of USUS
Related business
Manufacturer
SpaceX/Seattle
Mission
Operational Commercial Communications
Bus & Motor
STARLINK V2M, Unknown motor
Mass
730 kg wet, ~700 kg dry
Launch date (UTC)
2025-01-24 (1 year ago)
Launch vehicle
FALCON 9
Launch site
Air Force Western Test Range (AFWTR)
Object type
Payload
Rocket body
Debris
Shape & HBR
Box + 2 Pan, 17.7 m
Radar Cross Section
33.884 m², Large (>1 m²)

Expand to show TLE details & history
Last TLE update: 4 hours ago

TLE from 4 hours ago
0 STARLINK-32848
1 62808U 25018C   26034.16890842  .00023764  00000-0  81200-3 0  9999
2 62808  53.1572 109.9026 0001630  79.4143 280.7041 15.30195685 57887
Epoch: 2026-02-03T04:03Z
TLE epoch observation values (Epoch: 2026-02-03T04:03:13.687Z)
Latitude
-0.00004°
Longitude
-84.25817°
Altitude
475.92 km
Speed
7.629 km/s
True Right ascension
07h 19m 36s
True Declination
0° 00' 00"
Sunlit
Object was in full shadow at epoch
Visualization orbit readout
Latitude
Unknown
Longitude
Unknown
Altitude
Unknown
Speed
Unknown
Apparent Right ascension
Unknown
Apparent Declination
Unknown
Sunlit
N/A
Visualization observer readout
Local Sidereal Time
10:22:29
Azimuth
Unknown
Elevation
Unknown
Doppler factor
Unknown
Orbital elements
Apogee altitude
476.602 km
Perigee altitude
474.368 km
Semi-major axis
6,853.622 km
Eccentricity
0.00016
Inclination
53.1572°
RAAN
109.9026°
Arg. of periapsis
79.4143°
True anomaly
280.68575°
Mean anomaly
280.7041°
Eccentric anomaly
280.69492°
Mean motion
3.82528 °/min
Orbital period
94.11 mins
BSTAR
0.000812
Loading maneuver chart data...
Computing Atmospheric mass density...
Loading historical data...
Loading historical data...
Loading historical data...
Loading historical data...
Loading historical data...
Loading historical data...
Loading historical data...

Documentation

Showing up to 5 results
|